Knox, IN

2:13 PM CST on February 20, 2017 (GMT -0600)
Starke County

Weather History for KOXI - July, 2013

Change the Weather History Date:

Saturday, July 27, 2013

  Actual Average (KSBN) Record (KSBN)
Temperature  
Mean Temperature 62 °F -  
Max Temperature 92 °F 82 °F 100 °F (1916)
Min Temperature 53 °F 63 °F 46 °F (1937)
Degree Days  
Heating Degree Days 2    
Growing Degree Days 12 (Base 50)    
Moisture  
Dew Point 58 °F    
Average Humidity 83    
Maximum Humidity 100    
Minimum Humidity 61    
Precipitation  
Precipitation 0.00 in - - ()
Sea Level Pressure  
Sea Level Pressure 29.88 in    
Wind  
Wind Speed 7 mph (WNW)    
Max Wind Speed 18 mph    
Max Gust Speed 24 mph    
Visibility 9 miles    
Events      
Averages and records for this station are not official NWS values.
T = Trace of Precipitation, MM = Missing Value Source: NWS Daily Summary

Daily Weather History Graph

Daily Weather History Graph

Search for Another Location

Airport or City:

Trip Planner

Search our weather history database for the weather conditions in past years. The results will help you decide how hot, cold, wet, or windy it might be!

Date:

Astronomy

Jul. 27, 2013 Rise Set
Actual Time 5:37 AM CDT 8:08 PM CDT
Civil Twilight 5:05 AM CDT 8:40 PM CDT
Nautical Twilight 4:26 AM CDT 9:19 PM CDT
Astronomical Twilight 3:41 AM CDT 10:03 PM CDT
Moon 10:50 PM CDT (7/27) 11:21 AM CDT (7/27)
Length of Visible Light 15h 34m
Length of Day
14h 31m
Waning Gibbous, 70% of the Moon is Illuminated
Jul 27
Waning Gibbous
Jul 29
Last Quarter
Aug 6
New
Aug 14
First Quarter
Aug 20
Full

Hourly Weather History & Observations

Time (CDT) Temp. Dew Point Humidity Pressure Visibility Wind Dir Wind Speed Gust Speed Precip Events Conditions
12:15 AM 66.0 °F 64.8 °F 96% 29.89 in 10.0 mi SSW 5.8 mph - N/A   Overcast
12:35 AM 66.2 °F 65.3 °F 97% 29.89 in 10.0 mi SSW 5.8 mph - N/A   Overcast
12:55 AM 66.2 °F 65.3 °F 97% 29.88 in 10.0 mi SSW 5.8 mph - N/A   Overcast
1:15 AM 66.0 °F 65.5 °F 98% 29.88 in 10.0 mi SSW 3.5 mph - N/A   Overcast
1:35 AM 66.2 °F 65.7 °F 98% 29.88 in 10.0 mi SSW 4.6 mph - N/A   Overcast
1:55 AM 66.2 °F 66.0 °F 99% 29.87 in 10.0 mi SW 3.5 mph - N/A   Overcast
2:15 AM 65.8 °F 65.7 °F 99% 29.87 in 7.0 mi WSW 4.6 mph - N/A   Mostly Cloudy
2:35 AM 65.1 °F 65.1 °F 100% 29.86 in 5.0 mi West 4.6 mph - N/A   Scattered Clouds
2:55 AM 64.8 °F 64.8 °F 100% 29.86 in 5.0 mi SW 3.5 mph - N/A   Scattered Clouds
3:15 AM 63.9 °F 63.9 °F 100% 29.86 in 3.0 mi SW 3.5 mph - N/A   Scattered Clouds
3:35 AM 63.0 °F 63.0 °F 100% 29.86 in 2.5 mi SSW 3.5 mph - N/A   Scattered Clouds
3:55 AM 62.6 °F 62.6 °F 100% 29.86 in 1.8 mi SW 3.5 mph - N/A   Mostly Cloudy
4:15 AM 61.7 °F 61.9 °F 100% 29.87 in 1.0 mi SW 3.5 mph - N/A   Overcast
4:35 AM 62.2 °F 62.4 °F 100% 29.86 in 0.5 mi SW 3.5 mph - N/A   Overcast
4:55 AM 61.2 °F 61.3 °F 100% 29.86 in 0.2 mi WSW 5.8 mph - N/A   Unknown
5:15 AM 61.2 °F 61.2 °F 100% 29.87 in 3.0 mi West 5.8 mph - N/A   Clear
5:35 AM 61.3 °F 61.5 °F 100% 29.87 in 4.0 mi West 5.8 mph - N/A   Clear
5:55 AM 60.6 °F 60.8 °F 100% 29.87 in 3.0 mi West 5.8 mph - N/A   Clear
6:15 AM 59.9 °F 60.1 °F 100% 29.87 in 4.0 mi West 3.5 mph - N/A   Clear
6:35 AM - - N/A% 29.87 in 5.0 mi Calm Calm - N/A   Clear
6:55 AM 60.1 °F 60.3 °F 100% 29.88 in 7.0 mi WSW 3.5 mph - N/A   Clear
7:15 AM 60.8 °F 61.0 °F 100% 29.88 in 7.0 mi West 3.5 mph - N/A   Clear
7:35 AM 61.3 °F 61.2 °F 99% 29.88 in 10.0 mi WNW 4.6 mph - N/A   Scattered Clouds
7:55 AM 62.2 °F 61.9 °F 99% 29.88 in 10.0 mi NW 4.6 mph - N/A   Mostly Cloudy
8:15 AM 64.0 °F 63.3 °F 97% 29.88 in 10.0 mi WNW 4.6 mph - N/A   Mostly Cloudy
8:35 AM 64.9 °F 63.7 °F 96% 29.88 in 10.0 mi West 3.5 mph - N/A   Mostly Cloudy
8:55 AM 65.8 °F 63.9 °F 93% 29.87 in 10.0 mi NW 6.9 mph - N/A   Overcast
9:15 AM 68.0 °F 63.5 °F 85% 29.87 in 10.0 mi North 3.5 mph - N/A   Scattered Clouds
9:35 AM 69.3 °F 62.6 °F 79% 29.86 in 10.0 mi WNW 6.9 mph - N/A   Scattered Clouds
9:55 AM 69.4 °F 61.0 °F 74% 29.86 in 10.0 mi WNW 6.9 mph - N/A   Mostly Cloudy
10:15 AM 69.1 °F 61.3 °F 76% 29.86 in 10.0 mi NW 11.5 mph - N/A   Mostly Cloudy
10:35 AM 67.5 °F 62.4 °F 84% 29.86 in 10.0 mi NNW 11.5 mph 17.3 mph N/A   Mostly Cloudy
10:55 AM 70.3 °F 61.9 °F 74% 29.86 in 10.0 mi NNW 9.2 mph - N/A   Scattered Clouds
11:15 AM 70.5 °F 61.2 °F 72% 29.86 in 10.0 mi NW 11.5 mph - N/A   Mostly Cloudy
11:35 AM 68.7 °F 60.6 °F 75% 29.86 in 10.0 mi NNW 11.5 mph - N/A   Mostly Cloudy
11:55 AM 68.2 °F 60.8 °F 77% 29.86 in 10.0 mi NNW 15.0 mph - N/A   Mostly Cloudy
12:15 PM 69.4 °F 60.8 °F 74% 29.86 in 10.0 mi NW 13.8 mph 18.4 mph N/A   Mostly Cloudy
12:35 PM 68.2 °F 60.1 °F 75% 29.86 in 10.0 mi NW 11.5 mph 19.6 mph N/A   Overcast
12:55 PM 68.7 °F 59.9 °F 73% 29.86 in 10.0 mi NW 10.4 mph 16.1 mph N/A   Overcast
1:15 PM 68.9 °F 59.5 °F 72% 29.86 in 10.0 mi NNW 13.8 mph - N/A   Mostly Cloudy
1:35 PM 68.0 °F 59.2 °F 73% 29.86 in 10.0 mi NNW 12.7 mph 17.3 mph N/A   Overcast
1:55 PM 68.2 °F 58.6 °F 71% 29.86 in 10.0 mi NNW 13.8 mph - N/A   Mostly Cloudy
2:15 PM 67.8 °F 58.1 °F 71% 29.86 in 10.0 mi NW 13.8 mph 20.7 mph N/A   Mostly Cloudy
2:35 PM 68.5 °F 57.9 °F 69% 29.86 in 10.0 mi NW 10.4 mph 19.6 mph N/A   Mostly Cloudy
2:55 PM 66.6 °F 57.2 °F 72% 29.87 in 7.0 mi NNW 15.0 mph 23.0 mph N/A   Overcast
3:15 PM 64.2 °F 58.6 °F 82% 29.88 in 10.0 mi NNW 16.1 mph 19.6 mph N/A   Mostly Cloudy
3:35 PM 65.1 °F 55.9 °F 72% 29.88 in 10.0 mi NW 15.0 mph 19.6 mph N/A   Scattered Clouds
3:55 PM 65.7 °F 55.9 °F 71% 29.88 in 10.0 mi NW 12.7 mph 17.3 mph N/A   Mostly Cloudy
4:15 PM 65.8 °F 54.9 °F 68% 29.88 in 10.0 mi NNW 13.8 mph 19.6 mph N/A   Mostly Cloudy
4:35 PM 66.0 °F 53.8 °F 65% 29.88 in 10.0 mi NNW 18.4 mph 24.2 mph N/A   Mostly Cloudy
4:55 PM 65.8 °F 52.5 °F 62% 29.88 in 10.0 mi NNW 12.7 mph - N/A   Mostly Cloudy
5:15 PM 65.3 °F 51.4 °F 61% 29.88 in 10.0 mi NW 10.4 mph - N/A   Mostly Cloudy
5:35 PM 64.8 °F 51.3 °F 62% 29.89 in 10.0 mi NW 11.5 mph 18.4 mph N/A   Mostly Cloudy
5:55 PM 64.6 °F 50.9 °F 61% 29.88 in 10.0 mi NNW 13.8 mph 18.4 mph N/A   Scattered Clouds
6:15 PM 64.8 °F 51.1 °F 61% 29.89 in 10.0 mi NNW 10.4 mph - N/A   Scattered Clouds
6:35 PM 63.9 °F 50.5 °F 62% 29.90 in 10.0 mi NNW 12.7 mph - N/A   Clear
6:55 PM 61.9 °F 50.4 °F 66% 29.90 in 10.0 mi NNW 10.4 mph 17.3 mph N/A   Scattered Clouds
7:15 PM 61.0 °F 50.5 °F 68% 29.90 in 10.0 mi NW 9.2 mph - N/A   Mostly Cloudy
7:35 PM 60.8 °F 50.2 °F 68% 29.91 in 10.0 mi NW 9.2 mph - N/A   Overcast
7:55 PM 60.4 °F 49.3 °F 67% 29.90 in 10.0 mi NNW 10.4 mph - N/A   Overcast
8:15 PM 59.5 °F 49.5 °F 69% 29.91 in 10.0 mi NNW 5.8 mph - N/A   Mostly Cloudy
8:35 PM 57.4 °F 50.2 °F 77% 29.91 in 10.0 mi NNW 3.5 mph - N/A   Mostly Cloudy
8:55 PM 57.2 °F 51.4 °F 81% 29.92 in 10.0 mi Calm Calm - N/A   Overcast
9:15 PM 57.2 °F 53.4 °F 87% 29.92 in 10.0 mi Calm Calm - N/A   Overcast
9:35 PM 56.8 °F 53.8 °F 89% 29.92 in 10.0 mi SW 3.5 mph - N/A   Overcast
9:55 PM 55.9 °F 53.6 °F 92% 29.92 in 10.0 mi SW 4.6 mph - N/A   Overcast
10:15 PM 56.1 °F 53.4 °F 91% 29.92 in 10.0 mi SW 3.5 mph - N/A   Overcast
10:35 PM 56.3 °F 53.1 °F 89% 29.92 in 10.0 mi WSW 4.6 mph - N/A   Overcast
10:55 PM 56.3 °F 52.2 °F 86% 29.92 in 10.0 mi West 5.8 mph - N/A   Overcast
11:15 PM 56.7 °F 50.4 °F 79% 29.91 in 10.0 mi West 5.8 mph - N/A   Overcast
11:35 PM 55.2 °F 49.5 °F 81% 29.91 in 10.0 mi West 5.8 mph - N/A   Scattered Clouds
11:55 PM 53.4 °F 49.3 °F 86% 29.91 in 10.0 mi WSW 6.9 mph - N/A   Scattered Clouds